| time (UTC) | temp F | wind direction | speed knots | gust knots | rain 1hr in | rain 24hr in | rain mn in | humidity % | barometer mb |
| 20260509191548 | 87 | 347 | 0.9 | 0.0 | 0.00 | 0.00 | 0.00 | 61 | 1007.1 |
| 20260509190049 | 87 | 62 | 1.7 | 0.0 | 0.00 | 0.00 | 0.00 | 61 | 1007.3 |
| 20260509184545 | 87 | 359 | 0.9 | 0.0 | 0.00 | 0.00 | 0.00 | 62 | 1007.6 |
| 20260509183045 | 87 | 14 | 0.9 | 0.0 | 0.00 | 0.00 | 0.00 | 62 | 1007.8 |
| 20260509181543 | 87 | 2 | 0.9 | 0.0 | 0.00 | 0.00 | 0.00 | 61 | 1008.1 |
| 20260509180041 | 86 | 258 | 1.7 | 0.0 | 0.00 | 0.00 | 0.00 | 66 | 1008.4 |
| 20260509174539 | 84 | 276 | 0.9 | 0.0 | 0.00 | 0.00 | 0.00 | 70 | 1008.4 |
| 20260509173103 | 84 | 295 | 0.9 | 0.0 | 0.00 | 0.00 | 0.00 | 69 | 1008.5 |
| 20260509171541 | 85 | 251 | 0.9 | 0.0 | 0.00 | 0.00 | 0.00 | 69 | 1009.0 |
| 20260509170038 | 85 | 229 | 0.9 | 0.0 | 0.00 | 0.00 | 0.00 | 68 | 1009.1 |
| 20260509164532 | 84 | 309 | 0.9 | 0.0 | 0.00 | 0.00 | 0.00 | 71 | 1008.9 |
| 20260509163029 | 83 | 285 | 0.9 | 0.0 | 0.00 | 0.00 | 0.00 | 73 | 1009.2 |
| 20260509161528 | 82 | 308 | 1.7 | 0.0 | 0.00 | 0.00 | 0.00 | 75 | 1009.1 |
| 20260509160024 | 81 | 222 | 0.9 | 0.0 | 0.00 | 0.00 | 0.00 | 77 | 1008.9 |
| 20260509154523 | 79 | 253 | 1.7 | 0.0 | 0.00 | 0.00 | 0.00 | 78 | 1008.9 |
| 20260509153030 | 79 | 178 | 1.7 | 0.0 | 0.00 | 0.00 | 0.00 | 79 | 1008.9 |
| 20260509151519 | 79 | 165 | 0.9 | 0.0 | 0.00 | 0.00 | 0.00 | 80 | 1008.6 |
| 20260509150020 | 79 | 268 | 0.9 | 0.0 | 0.00 | 0.00 | 0.00 | 79 | 1008.6 |
| 20260509144517 | 79 | 206 | 0.9 | 0.0 | 0.00 | 0.00 | 0.00 | 80 | 1008.6 |
| 20260509143017 | 79 | 116 | 0.9 | 0.0 | 0.00 | 0.00 | 0.00 | 81 | 1008.4 |
| 20260509141510 | 76 | 108 | 0.9 | 0.0 | 0.00 | 0.00 | 0.00 | 85 | 1008.1 |
| 20260509140006 | 75 | 160 | 0.9 | 0.0 | 0.00 | 0.00 | 0.00 | 88 | 1007.7 |
| 20260509134502 | 73 | 168 | 1.7 | 0.0 | 0.00 | 0.00 | 0.00 | 91 | 1007.6 |
| 20260509133105 | 72 | 109 | 1.7 | 0.0 | 0.00 | 0.00 | 0.00 | 92 | 1008.0 |
| 20260509131605 | 72 | 86 | 0.9 | 0.0 | 0.00 | 0.00 | 0.00 | 93 | 1008.0 |
| 20260509130128 | 71 | 296 | 0.0 | 0.0 | 0.00 | 0.00 | 0.00 | 93 | 1008.3 |
| 20260509124602 | 71 | 296 | 0.0 | 0.0 | 0.00 | 0.00 | 0.00 | 93 | 1008.7 |
| 20260509123126 | 71 | 348 | 0.0 | 0.0 | 0.00 | 0.00 | 0.00 | 93 | 1008.5 |
| 20260509121558 | 71 | 12 | 0.0 | 0.0 | 0.00 | 0.00 | 0.00 | 93 | 1008.3 |
| 20260509120058 | 70 | 12 | 0.0 | 0.0 | 0.00 | 0.00 | 0.00 | 93 | 1008.6 |
| 20260509114626 | 71 | 111 | 0.0 | 0.0 | 0.00 | 0.00 | 0.00 | 92 | 1008.5 |
| 20260509113124 | 71 | 111 | 0.0 | 0.0 | 0.00 | 0.00 | 0.00 | 92 | 1009.2 |
| 20260509111555 | 71 | 358 | 0.0 | 0.0 | 0.00 | 0.00 | 0.00 | 93 | 1009.5 |
| 20260509110100 | 71 | 312 | 0.0 | 0.0 | 0.00 | 0.00 | 0.00 | 92 | 1009.7 |
| 20260509104553 | 71 | 5 | 0.9 | 0.0 | 0.00 | 0.00 | 0.00 | 92 | 1009.7 |
| 20260509103102 | 71 | 14 | 0.0 | 0.0 | 0.00 | 0.00 | 0.00 | 92 | 1009.8 |
| 20260509101600 | 71 | 7 | 0.0 | 0.0 | 0.00 | 0.00 | 0.00 | 92 | 1009.6 |
| 20260509100050 | 71 | 137 | 0.0 | 0.0 | 0.00 | 0.00 | 0.00 | 92 | 1009.1 |
| 20260509094550 | 71 | 137 | 0.0 | 0.0 | 0.00 | 0.00 | 0.00 | 92 | 1008.6 |
| 20260509093047 | 71 | 137 | 0.0 | 0.0 | 0.00 | 0.00 | 0.00 | 92 | 1008.1 |
| 20260509091551 | 71 | 137 | 0.0 | 0.0 | 0.00 | 0.00 | 0.00 | 91 | 1008.1 |
| 20260509090047 | 71 | 137 | 0.0 | 0.0 | 0.00 | 0.00 | 0.00 | 91 | 1008.1 |
| 20260509084543 | 72 | 137 | 0.0 | 0.0 | 0.00 | 0.00 | 0.00 | 91 | 1008.2 |
| 20260509083042 | 72 | 137 | 0.0 | 0.0 | 0.00 | 0.00 | 0.00 | 91 | 1008.5 |
| 20260509081540 | 72 | 137 | 0.0 | 0.0 | 0.00 | 0.00 | 0.00 | 90 | 1008.6 |
| 20260509080043 | 72 | 137 | 0.0 | 0.0 | 0.00 | 0.00 | 0.00 | 90 | 1008.6 |
| 20260509074537 | 72 | 137 | 0.0 | 0.0 | 0.00 | 0.00 | 0.00 | 89 | 1008.7 |
| 20260509073039 | 72 | 137 | 0.0 | 0.0 | 0.00 | 0.00 | 0.00 | 89 | 1008.8 |
| 20260509071534 | 72 | 137 | 0.0 | 0.0 | 0.00 | 0.00 | 0.00 | 88 | 1008.9 |
| 20260509070033 | 73 | 137 | 0.0 | 0.0 | 0.00 | 0.00 | 0.00 | 88 | 1009.1 |
| 20260509064536 | 73 | 137 | 0.0 | 0.0 | 0.00 | 0.00 | 0.00 | 88 | 1008.6 |
| 20260509063036 | 73 | 137 | 0.0 | 0.0 | 0.00 | 0.00 | 0.00 | 88 | 1008.8 |
| 20260509061531 | 73 | 137 | 0.9 | 0.0 | 0.00 | 0.00 | 0.00 | 88 | 1008.8 |
| 20260509060029 | 73 | 165 | 0.9 | 0.0 | 0.00 | 0.00 | 0.00 | 88 | 1008.4 |
| 20260509054535 | 73 | 145 | 1.7 | 0.0 | 0.00 | 0.00 | 0.00 | 88 | 1008.5 |
| 20260509053025 | 72 | 131 | 1.7 | 0.0 | 0.00 | 0.00 | 0.00 | 88 | 1007.7 |
| 20260509051523 | 72 | 126 | 0.9 | 0.0 | 0.00 | 0.00 | 0.00 | 88 | 1007.5 |
| 20260509050026 | 72 | 135 | 0.9 | 0.0 | 0.00 | 0.00 | 0.00 | 87 | 1007.4 |
| 20260509044521 | 72 | 140 | 0.0 | 0.0 | 0.00 | 0.00 | 0.00 | 87 | 1007.6 |
| 20260509043021 | 73 | 134 | 0.9 | 0.0 | 0.00 | 0.00 | 0.00 | 87 | 1007.9 |
| 20260509041522 | 72 | 131 | 0.0 | 0.0 | 0.00 | 0.00 | 0.00 | 87 | 1008.1 |
| 20260509040033 | 72 | 124 | 0.9 | 0.0 | 0.00 | 0.00 | 0.00 | 87 | 1008.2 |
| 20260509034519 | 72 | 119 | 0.0 | 0.0 | 0.00 | 0.00 | 0.00 | 87 | 1008.1 |
| 20260509033017 | 71 | 145 | 0.0 | 0.0 | 0.00 | 0.00 | 0.00 | 86 | 1007.8 |
| 20260509031525 | 72 | 179 | 0.0 | 0.0 | 0.00 | 0.00 | 0.00 | 85 | 1007.8 |
| 20260509030016 | 72 | 161 | 0.0 | 0.0 | 0.00 | 0.00 | 0.00 | 84 | 1007.7 |
| 20260509024516 | 73 | 165 | 0.0 | 0.0 | 0.00 | 0.00 | 0.00 | 83 | 1007.7 |
| 20260509023015 | 74 | 131 | 0.9 | 0.0 | 0.00 | 0.00 | 0.00 | 83 | 1007.6 |
| 20260509021517 | 74 | 136 | 0.9 | 0.0 | 0.00 | 0.00 | 0.00 | 82 | 1007.3 |
| 20260509020014 | 75 | 143 | 0.9 | 0.0 | 0.00 | 0.00 | 0.00 | 82 | 1007.0 |
| 20260509014531 | 75 | 116 | 0.9 | 0.0 | 0.00 | 0.00 | 0.00 | 81 | 1006.9 |
| 20260509013013 | 76 | 126 | 0.9 | 0.0 | 0.00 | 0.00 | 0.00 | 80 | 1006.7 |
| 20260509011511 | 76 | 189 | 1.7 | 0.0 | 0.00 | 0.00 | 0.00 | 78 | 1006.7 |
| 20260509010011 | 77 | 136 | 0.9 | 0.0 | 0.00 | 0.00 | 0.00 | 77 | 1006.8 |
| 20260509004510 | 77 | 143 | 0.9 | 0.0 | 0.00 | 0.00 | 0.00 | 77 | 1006.7 |
| 20260509003010 | 77 | 139 | 1.7 | 0.0 | 0.00 | 0.00 | 0.00 | 77 | 1006.8 |
| 20260509001509 | 77 | 138 | 0.9 | 0.0 | 0.00 | 0.00 | 0.00 | 76 | 1006.8 |
| 20260509000009 | 77 | 150 | 0.0 | 0.0 | 0.00 | 0.00 | 0.00 | 76 | 1006.7 |
| 20260508234509 | 77 | 150 | 0.9 | 0.0 | 0.00 | 0.00 | 0.00 | 76 | 1007.0 |
| 20260508233008 | 78 | 123 | 1.7 | 0.0 | 0.00 | 0.00 | 0.00 | 75 | 1006.8 |
| 20260508231508 | 78 | 137 | 0.9 | 0.0 | 0.00 | 0.00 | 0.00 | 74 | 1006.8 |
| 20260508230007 | 78 | 155 | 0.9 | 0.0 | 0.00 | 0.00 | 0.00 | 74 | 1006.8 |
| 20260508224506 | 78 | 150 | 0.9 | 0.0 | 0.00 | 0.00 | 0.00 | 74 | 1006.9 |
| 20260508223008 | 79 | 145 | 0.9 | 0.0 | 0.00 | 0.00 | 0.00 | 73 | 1006.9 |
| 20260508221505 | 79 | 110 | 0.9 | 0.0 | 0.00 | 0.00 | 0.00 | 73 | 1006.9 |
| 20260508220013 | 80 | 164 | 1.7 | 0.0 | 0.00 | 0.00 | 0.00 | 72 | 1006.9 |
| 20260508214502 | 81 | 199 | 1.7 | 0.0 | 0.00 | 0.00 | 0.00 | 70 | 1007.1 |
| 20260508213101 | 79 | 128 | 0.9 | 0.0 | 0.00 | 0.00 | 0.00 | 73 | 1007.2 |
| 20260508211556 | 79 | 68 | 0.9 | 0.0 | 0.00 | 0.00 | 0.00 | 72 | 1007.6 |
| 20260508210057 | 79 | 93 | 0.9 | 0.0 | 0.00 | 0.00 | 0.00 | 73 | 1007.7 |
| 20260508204602 | 79 | 147 | 0.9 | 0.0 | 0.00 | 0.00 | 0.00 | 72 | 1008.2 |
| 20260508203052 | 79 | 165 | 0.9 | 0.0 | 0.00 | 0.00 | 0.00 | 72 | 1008.2 |
| 20260508201550 | 79 | 58 | 0.9 | 0.0 | 0.00 | 0.00 | 0.00 | 72 | 1008.3 |
| 20260508200051 | 77 | 154 | 1.7 | 0.0 | 0.00 | 0.00 | 0.00 | 71 | 1008.6 |
| 20260508194547 | 77 | 137 | 0.9 | 0.0 | 0.00 | 0.00 | 0.00 | 71 | 1009.0 |
| 20260508193051 | 77 | 148 | 0.9 | 0.0 | 0.00 | 0.00 | 0.00 | 71 | 1009.0 |